This is the latest recevied weather packets stored in our database for station/object KQ4EHY-1. If no packets are shown the sender has not sent any weather packets the latest 1 day(s).
| Time | Temp. | Humidity | Pressure | Rain* | Wind** | Luminosity | Snow |
|---|---|---|---|---|---|---|---|
| 1778048829 | 16.67° C | 75% | 1009 hPa | 0 mm | 0 m/s | - | - |
| 1778048649 | 16.67° C | 75% | 1009.2 hPa | 0 mm | 0 m/s | - | - |
| 1778048589 | 16.67° C | 75% | 1009.2 hPa | 0 mm | 0 m/s | - | - |
| 1778048289 | 16.67° C | 75% | 1009.1 hPa | 0 mm | 0 m/s | - | - |
| 1778048109 | 16.67° C | 74% | 1009 hPa | 0 mm | 0 m/s | - | - |
| 1778047629 | 16.67° C | 74% | 1009.2 hPa | 0 mm | 0 m/s | - | - |
| 1778047449 | 16.11° C | 76% | 1009.1 hPa | 0 mm | 0 m/s | - | - |
| 1778047389 | 16.11° C | 76% | 1009.1 hPa | 0 mm | 0 m/s | - | - |
| 1778047270 | 16.11° C | 76% | 1009.1 hPa | 0 mm | 0 m/s | - | - |
| 1778047029 | 16.11° C | 75% | 1009.1 hPa | 0 mm | 0 m/s | - | - |
| 1778046909 | 16.11° C | 77% | 1009 hPa | 0 mm | 0 m/s | - | - |
| 1778046729 | 16.11° C | 77% | 1009 hPa | 0 mm | 0 m/s | - | - |
| 1778046549 | 16.11° C | 76% | 1009 hPa | 0 mm | 0 m/s | - | - |
| 1778046370 | 16.11° C | 76% | 1009 hPa | 0 mm | 0 m/s | - | - |
| 1778046249 | 16.11° C | 77% | 1009 hPa | 0 mm | 0 m/s | - | - |
| 1778046069 | 16.11° C | 77% | 1009 hPa | 0 mm | 0 m/s | - | - |
| 1778045829 | 16.11° C | 75% | 1008.7 hPa | 0 mm | 0 m/s | - | - |
| 1778045529 | 16.11° C | 75% | 1009 hPa | 0 mm | 0 m/s | - | - |
| 1778045469 | 16.11° C | 75% | 1009 hPa | 0 mm | 0 m/s | - | - |
| 1778045169 | 16.11° C | 74% | 1009 hPa | 0 mm | 0 m/s | - | - |
| 1778045109 | 16.11° C | 76% | 1009 hPa | 0 mm | 0 m/s | - | - |
| 1778044929 | 16.11° C | 76% | 1009 hPa | 0 mm | 0 m/s | - | - |
| 1778044749 | 16.11° C | 75% | 1009.1 hPa | 0 mm | 0 m/s | - | - |
| 1778044690 | 16.11° C | 75% | 1009.1 hPa | 0 mm | 0 m/s | - | - |
| 1778044449 | 15.56° C | 78% | 1009.2 hPa | 0 mm | 0 m/s | - | - |
* Rain latest hour (hover to see other rain measurements)
** Current wind speed in m/s (hover to see current wind gust speed)